timestamp,surface_pressure_avg,surface_temp_avg,battery_voltage,lat,long
2019-09-13 00:00:00+00:00,339.0729,15.1,12.97,47.84626,-54.09684
2019-09-13 00:10:00+00:00,332.908,15.1,12.89,47.84626,-54.09684
2019-09-13 00:20:00+00:00,331.4697,15.1,12.97,47.84626,-54.09684
2019-09-13 00:30:00+00:00,328.3096,15.1,12.97,47.84626,-54.09684
2019-09-13 00:40:00+00:00,322.7447,15.07,12.97,47.84626,-54.09684
2019-09-13 00:50:00+00:00,318.5129,15.0,12.97,47.84626,-54.09684
2019-09-13 01:00:00+00:00,312.0613,15.0,12.89,47.84626,-54.09684
2019-09-13 01:10:00+00:00,301.0613,15.0,12.81,47.84626,-54.09684
2019-09-13 01:20:00+00:00,294.2313,15.0,12.89,47.84626,-54.09684
2019-09-13 01:30:00+00:00,293.1414,14.96,12.89,47.84626,-54.09684
2019-09-13 01:40:00+00:00,284.0497,14.9,12.97,47.84626,-54.09684
2019-09-13 01:50:00+00:00,272.5981,14.88,12.97,47.84626,-54.09684
2019-09-13 02:00:00+00:00,268.3831,14.8,12.81,47.84626,-54.09684
2019-09-13 02:10:00+00:00,264.4664,14.89,12.81,47.84626,-54.09684
2019-09-13 02:20:00+00:00,254.1681,14.89,12.89,47.84626,-54.09684
2019-09-13 02:30:00+00:00,250.6714,14.9,12.89,47.84626,-54.09684
2019-09-13 02:40:00+00:00,246.9281,14.91,12.89,47.84626,-54.09684
2019-09-13 02:50:00+00:00,236.9514,14.9,12.89,47.84626,-54.09684
2019-09-13 03:00:00+00:00,229.9015,14.9,12.81,47.84626,-54.09684
2019-09-13 03:10:00+00:00,227.3731,14.94,12.73,47.84626,-54.09684
2019-09-13 03:20:00+00:00,223.0764,14.95,12.81,47.84626,-54.09684
2019-09-13 03:30:00+00:00,215.7798,14.96,12.81,47.84626,-54.09684
2019-09-13 03:40:00+00:00,210.1748,14.96,12.81,47.84626,-54.09684
2019-09-13 03:50:00+00:00,206.4714,14.96,12.81,47.84626,-54.09684
2019-09-13 04:00:00+00:00,202.1714,14.96,12.73,47.84626,-54.09684
2019-09-13 04:10:00+00:00,200.9547,14.97,12.73,47.84626,-54.09684
2019-09-13 04:20:00+00:00,199.9598,14.95,12.81,47.84626,-54.09684
2019-09-13 04:30:00+00:00,196.6865,14.91,12.81,47.84626,-54.09684
2019-09-13 04:40:00+00:00,196.9865,14.9,12.81,47.84626,-54.09684
2019-09-13 04:50:00+00:00,198.2198,14.89,12.81,47.84626,-54.09684
2019-09-13 05:00:00+00:00,196.8264,14.89,12.73,47.84626,-54.09684
2019-09-13 05:10:00+00:00,198.8465,14.88,12.65,47.84626,-54.09684
2019-09-13 05:20:00+00:00,203.4431,14.9,12.73,47.84626,-54.09684
2019-09-13 05:30:00+00:00,204.3431,14.9,12.73,47.84626,-54.09684
2019-09-13 05:40:00+00:00,201.1598,14.9,12.81,47.84626,-54.09684
2019-09-13 05:50:00+00:00,203.1165,14.9,12.81,47.84626,-54.09684
2019-09-13 06:00:00+00:00,207.4831,14.9,12.73,47.84626,-54.09684
2019-09-13 06:10:00+00:00,209.9731,14.89,12.65,47.84626,-54.09684
2019-09-13 06:20:00+00:00,209.9748,14.9,12.73,47.84626,-54.09684
2019-09-13 06:30:00+00:00,215.7331,14.9,12.73,47.84626,-54.09684
2019-09-13 06:40:00+00:00,220.8131,14.9,12.81,47.84626,-54.09684
2019-09-13 06:50:00+00:00,224.1681,14.87,12.81,47.84626,-54.09684
2019-09-13 07:00:00+00:00,227.0914,14.81,12.73,47.84626,-54.09684
2019-09-13 07:10:00+00:00,228.0647,14.8,12.65,47.84626,-54.09684
2019-09-13 07:20:00+00:00,233.9231,14.8,12.73,47.84626,-54.09684
2019-09-13 07:30:00+00:00,239.8814,14.8,12.73,47.84626,-54.09684
2019-09-13 07:40:00+00:00,244.4164,14.7,12.81,47.84626,-54.09684
2019-09-13 07:50:00+00:00,249.1264,14.6,12.81,47.84626,-54.09684
2019-09-13 08:00:00+00:00,255.7981,14.7,12.73,47.84626,-54.09684
2019-09-13 08:10:00+00:00,259.063,14.7,12.65,47.84626,-54.09684
2019-09-13 08:20:00+00:00,264.3365,14.7,12.73,47.84626,-54.09684
2019-09-13 08:30:00+00:00,267.6881,14.7,12.73,47.84626,-54.09684
2019-09-13 08:40:00+00:00,276.2914,14.7,12.81,47.84626,-54.09684
2019-09-13 08:50:00+00:00,282.8981,14.62,12.81,47.84626,-54.09684
2019-09-13 09:00:00+00:00,288.3547,14.6,12.73,47.84626,-54.09684
2019-09-13 09:10:00+00:00,287.4064,14.6,12.65,47.84626,-54.09684
2019-09-13 09:20:00+00:00,292.5447,14.6,12.73,47.84626,-54.09684
2019-09-13 09:30:00+00:00,299.5864,14.5,12.81,47.84626,-54.09684
2019-09-13 09:40:00+00:00,305.048,14.31,12.89,47.84626,-54.09684
2019-09-13 09:50:00+00:00,309.853,14.48,13.13,47.84626,-54.09684
2019-09-13 10:00:00+00:00,315.4346,14.4,13.29,47.84626,-54.09684
2019-09-13 10:10:00+00:00,319.1631,14.4,13.44,47.84626,-54.09684
2019-09-13 10:20:00+00:00,322.2429,13.91,13.76,47.84626,-54.09684
2019-09-13 10:30:00+00:00,328.0364,14.16,14.0,47.84626,-54.09684
2019-09-13 10:40:00+00:00,330.9113,14.39,14.4,47.84626,-54.09684
2019-09-13 10:50:00+00:00,332.5897,14.4,15.35,47.84626,-54.09684
2019-09-13 11:00:00+00:00,336.9914,14.34,15.04,47.84626,-54.09684
2019-09-13 11:10:00+00:00,335.9564,14.5,15.35,47.84626,-54.09684
2019-09-13 11:20:00+00:00,337.1546,14.59,16.31,47.84626,-54.09684
2019-09-13 11:30:00+00:00,337.1163,14.59,16.47,47.84626,-54.09684
2019-09-13 11:40:00+00:00,337.9013,14.6,16.47,47.84626,-54.09684
2019-09-13 11:50:00+00:00,339.8879,14.6,16.47,47.84626,-54.09684
2019-09-13 12:00:00+00:00,339.7646,14.6,15.83,47.84626,-54.09684
2019-09-13 12:10:00+00:00,333.6497,14.54,14.56,47.84626,-54.09684
2019-09-13 12:20:00+00:00,328.608,14.57,16.15,47.84626,-54.09684
2019-09-13 12:30:00+00:00,327.4413,14.58,15.2,47.84626,-54.09684
2019-09-13 12:40:00+00:00,318.663,14.6,15.35,47.84626,-54.09684
2019-09-13 12:50:00+00:00,312.908,14.59,15.2,47.84626,-54.09684
2019-09-13 13:00:00+00:00,314.0197,14.59,14.96,47.84626,-54.09684
2019-09-13 13:10:00+00:00,306.3697,14.6,14.96,47.84626,-54.09684
2019-09-13 13:20:00+00:00,297.9431,14.5,15.04,47.84626,-54.09684
2019-09-13 13:30:00+00:00,291.228,14.48,14.96,47.84626,-54.09684
2019-09-13 13:40:00+00:00,288.933,14.5,14.96,47.84626,-54.09684
2019-09-13 13:50:00+00:00,277.5848,14.5,14.96,47.84626,-54.09684
2019-09-13 14:00:00+00:00,267.3464,14.49,14.8,47.84626,-54.09684
2019-09-13 14:10:00+00:00,262.6081,14.5,14.72,47.84626,-54.09684
2019-09-13 14:20:00+00:00,256.2931,14.5,14.88,47.84626,-54.09684
2019-09-13 14:30:00+00:00,244.2982,14.5,14.8,47.84626,-54.09684
2019-09-13 14:40:00+00:00,238.9298,14.5,14.8,47.84626,-54.09684
2019-09-13 14:50:00+00:00,236.5514,14.5,14.8,47.84626,-54.09684
2019-09-13 15:00:00+00:00,225.6081,14.4,14.64,47.84626,-54.09684
2019-09-13 15:10:00+00:00,216.3297,14.4,14.64,47.84626,-54.09684
2019-09-13 15:20:00+00:00,218.6431,14.4,14.72,47.84626,-54.09684
2019-09-13 15:30:00+00:00,211.5381,14.4,14.72,47.84626,-54.09684
2019-09-13 15:40:00+00:00,200.8515,14.4,14.72,47.84626,-54.09684
2019-09-13 15:50:00+00:00,202.3398,14.4,14.64,47.84626,-54.09684
2019-09-13 16:00:00+00:00,202.6065,14.49,14.56,47.84626,-54.09684
2019-09-13 16:10:00+00:00,189.4315,14.49,14.56,47.84626,-54.09684
2019-09-13 16:20:00+00:00,184.3881,14.5,14.56,47.84626,-54.09684
2019-09-13 16:30:00+00:00,191.9715,14.5,14.64,47.84626,-54.09684
2019-09-13 16:40:00+00:00,188.5281,14.6,14.64,47.84626,-54.09684
2019-09-13 16:50:00+00:00,173.1965,14.64,14.56,47.84626,-54.09684
2019-09-13 17:00:00+00:00,176.1348,14.6,14.48,47.84626,-54.09684
2019-09-13 17:10:00+00:00,187.4798,14.56,14.32,47.84626,-54.09684
2019-09-13 17:20:00+00:00,175.6015,14.6,14.48,47.84626,-54.09684
2019-09-13 17:30:00+00:00,163.3798,14.72,14.4,47.84626,-54.09684
2019-09-13 17:40:00+00:00,172.9398,14.8,14.48,47.84626,-54.09684
2019-09-13 17:50:00+00:00,180.3181,14.6,14.48,47.84626,-54.09684
2019-09-13 18:00:00+00:00,173.9498,14.6,14.32,47.84626,-54.09684
2019-09-13 18:10:00+00:00,171.4548,14.76,14.24,47.84626,-54.09684
2019-09-13 18:20:00+00:00,180.0981,14.79,14.24,47.84626,-54.09684
2019-09-13 18:30:00+00:00,182.3031,14.67,14.24,47.84626,-54.09684
2019-09-13 18:40:00+00:00,180.8982,14.7,14.32,47.84626,-54.09684
2019-09-13 18:50:00+00:00,189.4182,14.7,14.24,47.84626,-54.09684
2019-09-13 19:00:00+00:00,198.3264,14.8,14.08,47.84626,-54.09684
2019-09-13 19:10:00+00:00,200.1381,14.8,14.0,47.84626,-54.09684
2019-09-13 19:20:00+00:00,204.8365,14.89,14.0,47.84626,-54.09684
2019-09-13 19:30:00+00:00,213.7982,14.8,14.0,47.84626,-54.09684
2019-09-13 19:40:00+00:00,222.7881,14.5,14.08,47.84626,-54.09684
2019-09-13 19:50:00+00:00,227.5831,14.57,14.08,47.84626,-54.09684
2019-09-13 20:00:00+00:00,229.5031,14.6,14.0,47.84626,-54.09684
2019-09-13 20:10:00+00:00,240.3398,14.6,13.84,47.84626,-54.09684
2019-09-13 20:20:00+00:00,249.4264,14.7,13.92,47.84626,-54.09684
2019-09-13 20:30:00+00:00,251.8914,14.7,13.92,47.84626,-54.09684
2019-09-13 20:40:00+00:00,254.678,14.6,13.84,47.84626,-54.09684
2019-09-13 20:50:00+00:00,266.8164,14.36,13.84,47.84626,-54.09684
2019-09-13 21:00:00+00:00,276.9031,14.68,13.76,47.84626,-54.09684
2019-09-13 21:10:00+00:00,279.983,14.6,13.6,47.84626,-54.09684
2019-09-13 21:20:00+00:00,284.3381,14.5,13.6,47.84626,-54.09684
2019-09-13 21:30:00+00:00,300.218,14.47,13.6,47.84626,-54.09684
2019-09-13 21:40:00+00:00,308.8931,14.53,13.53,47.84626,-54.09684
2019-09-13 21:50:00+00:00,308.0613,14.7,13.53,47.84626,-54.09684
2019-09-13 22:00:00+00:00,313.6096,14.46,13.37,47.84626,-54.09684
2019-09-13 22:10:00+00:00,329.1796,13.6,13.21,47.84626,-54.09684
2019-09-13 22:20:00+00:00,332.0047,14.07,13.21,47.84626,-54.09684
2019-09-13 22:30:00+00:00,328.7278,14.6,13.21,47.84626,-54.09684
2019-09-13 22:40:00+00:00,333.6496,13.83,13.21,47.84626,-54.09684
2019-09-13 22:50:00+00:00,342.0662,13.6,13.13,47.84626,-54.09684
2019-09-13 23:00:00+00:00,338.588,13.79,13.05,47.84626,-54.09684
2019-09-13 23:10:00+00:00,339.388,14.01,12.97,47.84626,-54.09684
2019-09-13 23:20:00+00:00,346.3881,13.73,12.97,47.84626,-54.09684
2019-09-13 23:30:00+00:00,345.5464,13.75,12.97,47.84626,-54.09684
2019-09-13 23:40:00+00:00,341.1079,13.84,12.97,47.84626,-54.09684
2019-09-13 23:50:00+00:00,344.1746,13.89,12.97,47.84626,-54.09684
